Location: Kawakawa
(35.3830°S, 174.0670°E)
Time: 19:01:44
(UTC+13:00)

A-11 Canister half - Pass Details

Date: 13 December 2019
Orbit: 1525 x 1684 km, 47.3° (Epoch: 26 January)

Event Time Altitude Azimuth Distance (km) Brightness Sun altitude
Rises 00:32:33 0° 236° (WSW) 4,703 12.2 -30.6°
Reaches altitude 10° 00:35:36 10° 234° (SW) 3,728 11.5 -30.7°
Maximum altitude 00:45:04 76° 148° (SSE) 1,615 9.0 -31.0°
Enters shadow 00:49:37 36° 70° (ENE) 2,305 9.6 -31.2°
